Location: Wanzleben
(52.0609°N, 11.4408°E)
Time: 07:15:02
(UTC+00:00)

FREGAT/IRIS - Pass Details

Date: 18 September 2020
Orbit: 310 x 312 km, 96.9° (Epoch: 19 October)

Event Time Altitude Azimuth Distance (km) Brightness Sun altitude
Exits shadow 19:05:02 26° 189° (S) 696 3.7 -16.3°
Maximum altitude 19:06:18 57° 259° (WSW) 393 2.8 -16.4°
Drops below altitude 10° 19:08:56 10° 340° (NNW) 1,256 5.8 -16.8°
Sets 19:10:51 0° 344° (NNW) 2,098 6.9 -17.1°
